Torna al catalogo

YAOGAN-43 02B

AttivoMilitareVLEO
NORAD 60946·PAYLOAD·🇨🇳 China

Lanciato Sep 3, 2024 da Xichang Satellite Launch Center

Loading…

Prossimi Passaggi (prossime 24 ore)

TLE

AggiornatoSource: Space-Track

Epoca: Sep 14, 2026, 14:16 UTC

1 60946U 24156B   26257.59448183  .00008626  00000-0  35955-3 0  9999
2 60946  34.9967 355.7113 0000713 254.6099 105.4537 15.22967905113080

Traccia YAOGAN-43 02B in tempo reale con AllMySat

Download on the App Store